{"data":{"norad_id":62046,"epoch":"2026-05-25T03:25:16.800384Z","epoch_age_seconds":61938,"freshness":"FRESH","line1":"1 62046U 24216Q   26145.14255556  .00010504  00000+0  39068-3 0  9992","line2":"2 62046  42.9989 184.0800 0000821 269.2544  90.8213 15.27578820 85578","mean_motion":15.2757882,"eccentricity":8.21e-5,"inclination_deg":42.9989,"raan_deg":184.08,"arg_perigee_deg":269.2544,"mean_anomaly_deg":90.8213,"bstar":0.00039068,"rev_number":8557,"period_min":94.266821531343,"perigee_km":482.48932571786,"apogee_km":483.615933055,"semimajor_km":6861.1896293864,"source":"CELESTRAK","updated_at":"2026-05-25T13:38:19.526765Z"}}